Location: Unspecified
(50.7693°N, 0.0000°E)
Time: 16:29:41
(UTC+00:00)

Altair - Visible Passes

Search period start: 16 June 2019 00:00
Search period end: 26 June 2019 00:00
Orbit: 1501 x 1683 km, 47.2° (Epoch: 16 June)

Date Brightness Start Highest point End Pass type
(mag) Time Alt. Az. Time Alt. Az. Time Alt. Az.
16 Jun 7.6 01:32:26 10° W 01:42:19 68° SSW 01:52:22 10° ESE visible
16 Jun 7.9 20:59:57 10° SSW 21:08:43 41° SE 21:17:47 10° E visible
16 Jun 7.5 23:02:55 10° WSW 23:12:37 69° SSE 23:22:38 10° E visible
17 Jun 7.6 01:07:16 10° W 01:17:08 69° SSW 01:27:12 10° ESE visible
17 Jun 7.5 22:37:48 10° WSW 22:47:26 68° SSE 22:57:25 10° E visible
18 Jun 7.6 00:42:06 10° W 00:51:57 71° S 01:02:02 10° ESE visible
18 Jun 7.9 02:46:45 10° W 02:56:00 44° SSW 03:05:22 10° SSE visible
18 Jun 7.6 22:12:42 10° WSW 22:22:16 66° SSE 22:32:13 10° E visible
19 Jun 7.5 00:16:56 10° W 00:26:46 72° S 00:36:51 10° ESE visible
19 Jun 7.8 02:21:33 10° W 02:30:53 46° SSW 02:40:21 10° SE visible
19 Jun 7.6 21:47:36 10° WSW 21:57:07 65° SSE 22:07:00 10° E visible
19 Jun 7.5 23:51:47 10° W 00:01:35 72° S 00:11:40 10° ESE visible
20 Jun 7.8 01:56:21 10° W 02:05:46 49° SSW 02:15:19 10° SE visible
20 Jun 7.6 21:22:31 10° WSW 21:31:58 63° SSE 21:41:47 10° E visible
20 Jun 7.5 23:26:37 10° W 23:36:24 73° S 23:46:28 10° ESE visible
21 Jun 7.7 01:31:10 10° W 01:40:37 51° SSW 01:50:16 10° SE visible
21 Jun 7.6 20:57:27 10° SW 21:06:50 61° SSE 21:16:34 10° E visible
21 Jun 7.5 23:01:28 10° W 23:11:13 73° S 23:21:16 10° ESE visible
22 Jun 7.7 01:06:00 10° W 01:15:30 53° SSW 01:25:12 10° SE visible
22 Jun 7.5 22:36:20 10° W 22:46:02 74° S 22:56:04 10° E visible
23 Jun 7.7 00:40:49 10° W 00:50:21 55° SSW 01:00:07 10° SE visible
23 Jun 8.4 02:46:05 10° W 02:53:39 25° SW 03:01:18 10° S visible
23 Jun 7.6 22:11:12 10° W 22:20:51 74° S 22:30:52 10° E visible
24 Jun 7.6 00:15:39 10° W 00:25:12 57° SSW 00:35:01 10° SE visible
24 Jun 8.3 02:20:47 10° W 02:28:36 27° SW 02:36:33 10° S visible
24 Jun 7.6 21:46:04 10° W 21:55:40 74° S 22:05:40 10° E visible
24 Jun 7.6 23:50:29 10° W 00:00:03 59° SSW 00:09:54 10° SE visible
25 Jun 8.3 01:55:29 10° W 02:03:32 29° SW 02:11:44 10° S visible
25 Jun 7.6 21:20:56 10° WSW 21:30:30 73° S 21:40:27 10° E visible
25 Jun 7.6 23:25:20 10° W 23:34:54 61° SSW 23:44:46 10° SE visible
